User: anonymous   Login
Location: ???????
(56.2167°N, 38.0500°E)
Time: 11:43:21
(UTC+00:00)
Language:

Cosmos 1371 Rocket - Orbit

View from above orbital plane
View from above orbital plane
View from above satellite
View from above satellite

Ground track
Ground track

The orbit data is extracted from the following two-line orbital elements,

1 13242U 82051B   25193.86931373  .00000166  00000-0  64448-4 0  9991
2 13242  74.0446 342.3275 0024493 180.9674 179.1437 14.37179046256515
Epoch (UTC): 12 July 2025 20:51:48
Eccentricity: 0.0024493
inclination: 74.0446°
perigee height: 750 km
apogee height: 785 km
right ascension of ascending node: 342.3275°
argument of perigee: 180.9674°
revolutions per day: 14.37179046
mean anomaly at epoch: 179.1437°
orbit number at epoch: 25651

The dashed part of the orbit path shows where the satellite is in the earth's shadow,  

DLR